STARLINK-32837, 62812

Orbit data source: Space-Track

STARLINK-32837, 62812 is a payload satellite owned by SpaceX/Seattle (US) in LEO that was launched on Fri, 24 Jan 2025 UTC via an FALCON 9 launch vehicle from the Air Force Western Test Range (AFWTR). Payload-class satellites include a variety of spacecraft equipped with specific instruments for various scientific and technological missions. These include communications satellites like Starlink; space stations such as the ISS; scientific satellites like the Hubble; Earth observation satellites from companies like Planet Labs, Umbra, and HawkEye 360; GPS; miniature CubeSats for education and research; and military/defense satellites.

Loading next visibility...
Identifier
62812, 2025-018G
Orbit
LEO
Country
Flag of USUS
Related business
Manufacturer
SpaceX/Seattle
Mission
Operational Commercial Communications
Bus & Motor
STARLINK V2M, Unknown motor
Mass
730 kg wet, ~700 kg dry
Launch date (UTC)
2025-01-24 (1 year ago)
Launch vehicle
FALCON 9
Launch site
Air Force Western Test Range (AFWTR)
Object type
Payload
Rocket body
Debris
Shape & HBR
Box + 2 Pan, 17.7 m
Radar Cross Section
33.884 m², Large (>1 m²)

Expand to show TLE details & history
Last TLE update: 5 hours ago

TLE from 5 hours ago
0 STARLINK-32837
1 62812U 25018G   26034.15835513  .00027413  00000-0  93378-3 0  9991
2 62812  53.1573 109.8523 0001438  67.2170 292.8982 15.30216967 57891
Epoch: 2026-02-03T03:48Z
TLE epoch observation values (Epoch: 2026-02-03T03:48:01.883Z)
Latitude
-0.00005°
Longitude
-80.49889°
Altitude
475.681 km
Speed
7.629 km/s
True Right ascension
07h 19m 24s
True Declination
0° 00' 00"
Sunlit
Object was in full shadow at epoch
Visualization orbit readout
Latitude
Unknown
Longitude
Unknown
Altitude
Unknown
Speed
Unknown
Apparent Right ascension
Unknown
Apparent Declination
Unknown
Sunlit
N/A
Visualization observer readout
Local Sidereal Time
10:22:29
Azimuth
Unknown
Elevation
Unknown
Doppler factor
Unknown
Orbital elements
Apogee altitude
476.407 km
Perigee altitude
474.436 km
Semi-major axis
6,853.558 km
Eccentricity
0.00014
Inclination
53.1573°
RAAN
109.8523°
Arg. of periapsis
67.217°
True anomaly
292.88302°
Mean anomaly
292.8982°
Eccentric anomaly
292.89061°
Mean motion
3.82533 °/min
Orbital period
94.11 mins
BSTAR
0.00093378
Loading maneuver chart data...
Computing Atmospheric mass density...
Loading historical data...
Loading historical data...
Loading historical data...
Loading historical data...
Loading historical data...
Loading historical data...
Loading historical data...

Documentation

Showing up to 5 results
|